Location: Brede
(50.9167°N, 0.6000°E)
Time: 23:28:04
(UTC+00:00)

Explorer 7 - Pass Details

Date: 03 August 2021
Orbit: 484 x 676 km, 50.3° (Epoch: 17 September)

Event Time Altitude Azimuth Distance (km) Brightness Sun altitude
Exits shadow 03:44:16 - 197° (SSW) 2,190 9.4 -6.4°
Reaches altitude 10° 03:45:58 10° 182° (S) 1,671 8.9 -6.2°
Maximum altitude 03:48:27 17° 141° (SE) 1,312 8.8 -5.9°
Drops below altitude 10° 03:51:00 10° 99° (E) 1,715 10.0 -5.5°
Sets 03:53:49 0° 79° (E) 2,635 11.7 -5.2°
